Time,TemperatureF,DewpointF,PressureIn,WindDirection,WindDirectionDegrees,WindSpeedMPH,WindSpeedGustMPH,Humidity,HourlyPrecipIn,Conditions,Clouds,dailyrainin,SoftwareType,DateUTC
2013-09-19 00:44:00,51.0,-99.9,30.20,SW,236,-999.0,-999.0,-999,0.00,,,-99.99,,2013-09-19 04:44:00,
2013-09-19 01:43:00,51.0,-99.9,30.19,SW,236,-999.0,-999.0,-999,0.00,,,-99.99,,2013-09-19 05:43:00,
2013-09-19 01:52:00,51.0,-99.9,30.19,SW,236,-999.0,-999.0,-999,0.00,,,-99.99,,2013-09-19 05:52:00,
2013-09-19 02:43:00,50.0,-99.9,30.19,SW,236,-999.0,-999.0,-999,0.00,,,-99.99,,2013-09-19 06:43:00,
2013-09-19 02:52:00,50.0,-99.9,30.19,SW,236,-999.0,-999.0,-999,0.00,,,-99.99,,2013-09-19 06:52:00,
2013-09-19 03:42:00,49.0,-99.9,30.18,SW,236,-999.0,-999.0,-999,0.00,,,-99.99,,2013-09-19 07:42:00,
2013-09-19 03:52:00,49.0,-99.9,30.18,SW,236,-999.0,-999.0,-999,0.00,,,-99.99,,2013-09-19 07:52:00,
2013-09-19 04:42:00,48.0,-99.9,30.17,SW,236,-999.0,-999.0,-999,0.00,,,-99.99,,2013-09-19 08:42:00,
2013-09-19 04:52:00,48.0,-99.9,30.17,SW,236,-999.0,-999.0,-999,0.00,,,-99.99,,2013-09-19 08:52:00,
2013-09-19 04:53:00,47.0,-99.9,30.18,SW,236,-999.0,-999.0,-999,0.00,,,-99.99,,2013-09-19 08:53:00,
2013-09-19 05:43:00,47.0,-99.9,30.18,SW,236,-999.0,-999.0,-999,0.00,,,-99.99,,2013-09-19 09:43:00,
2013-09-19 06:43:00,46.0,-99.9,30.17,SW,236,-999.0,-999.0,-999,0.00,,,-99.99,,2013-09-19 10:43:00,
2013-09-19 06:52:00,46.0,-99.9,30.17,SW,236,-999.0,-999.0,-999,0.00,,,-99.99,,2013-09-19 10:52:00,
2013-09-19 06:53:00,46.0,-99.9,30.19,SW,236,-999.0,-999.0,-999,0.00,,,-99.99,,2013-09-19 10:53:00,
2013-09-19 07:42:00,46.0,-99.9,30.19,SW,236,-999.0,-999.0,-999,0.00,,,-99.99,,2013-09-19 11:42:00,
2013-09-19 08:43:00,47.0,-99.9,30.18,SW,236,-999.0,-999.0,-999,0.00,,,-99.99,,2013-09-19 12:43:00,
2013-09-19 08:52:00,47.0,-99.9,30.18,SW,236,-999.0,-999.0,-999,0.00,,,-99.99,,2013-09-19 12:52:00,
2013-09-19 09:43:00,52.0,-99.9,30.17,SW,236,-999.0,-999.0,-999,0.00,,,-99.99,,2013-09-19 13:43:00,
2013-09-19 09:52:00,52.0,-99.9,30.17,SW,236,-999.0,-999.0,-999,0.00,,,-99.99,,2013-09-19 13:52:00,
2013-09-19 10:42:00,61.0,-99.9,30.18,South,186,-999.0,5.0,-999,0.00,,,-99.99,,2013-09-19 14:42:00,
2013-09-19 10:52:00,61.0,-99.9,30.18,South,186,-999.0,5.0,-999,0.00,,,-99.99,,2013-09-19 14:52:00,
2013-09-19 10:53:00,69.0,-99.9,30.16,SW,228,-999.0,-999.0,-999,0.00,,,-99.99,,2013-09-19 14:53:00,
2013-09-19 11:43:00,69.0,-99.9,30.16,SW,228,-999.0,-999.0,-999,0.00,,,-99.99,,2013-09-19 15:43:00,
2013-09-19 11:53:00,72.0,-99.9,30.15,West,263,-999.0,6.0,-999,0.00,,,-99.99,,2013-09-19 15:53:00,
2013-09-19 12:43:00,72.0,-99.9,30.15,West,263,-999.0,6.0,-999,0.00,,,-99.99,,2013-09-19 16:43:00,
2013-09-19 12:53:00,75.0,-99.9,30.14,SSE,152,-999.0,7.0,-999,0.00,,,-99.99,,2013-09-19 16:53:00,
2013-09-19 13:42:00,75.0,-99.9,30.14,SSE,152,-999.0,7.0,-999,0.00,,,-99.99,,2013-09-19 17:42:00,
2013-09-19 14:42:00,76.0,-99.9,30.11,South,180,5.0,9.0,-999,0.00,,,-99.99,,2013-09-19 18:42:00,
2013-09-19 14:52:00,76.0,-99.9,30.11,South,180,5.0,9.0,-999,0.00,,,-99.99,,2013-09-19 18:52:00,
2013-09-19 15:42:00,78.0,-99.9,30.09,SSE,149,-999.0,6.0,-999,0.00,,,-99.99,,2013-09-19 19:42:00,
2013-09-19 15:52:00,78.0,-99.9,30.09,SSE,149,-999.0,6.0,-999,0.00,,,-99.99,,2013-09-19 19:52:00,
2013-09-19 16:42:00,79.0,-99.9,30.07,SW,222,-999.0,6.0,-999,0.00,,,-99.99,,2013-09-19 20:42:00,
2013-09-19 16:52:00,79.0,-99.9,30.07,SW,222,-999.0,6.0,-999,0.00,,,-99.99,,2013-09-19 20:52:00,
2013-09-19 16:53:00,77.0,-99.9,30.07,SSW,203,-999.0,3.0,-999,0.00,,,-99.99,,2013-09-19 20:53:00,
2013-09-19 17:44:00,77.0,-99.9,30.07,SSW,203,-999.0,3.0,-999,0.00,,,-99.99,,2013-09-19 21:44:00,
2013-09-19 17:53:00,74.0,-99.9,30.06,SSE,156,-999.0,-999.0,-999,0.00,,,-99.99,,2013-09-19 21:53:00,
2013-09-19 18:43:00,74.0,-99.9,30.06,SSE,156,-999.0,-999.0,-999,0.00,,,-99.99,,2013-09-19 22:43:00,
2013-09-19 18:53:00,69.0,-99.9,30.07,SSE,156,-999.0,-999.0,-999,0.00,,,-99.99,,2013-09-19 22:53:00,
2013-09-19 19:43:00,69.0,-99.9,30.07,SSE,156,-999.0,-999.0,-999,0.00,,,-99.99,,2013-09-19 23:43:00,
2013-09-19 20:42:00,64.0,-99.9,30.09,SSE,156,-999.0,-999.0,-999,0.00,,,-99.99,,2013-09-20 00:42:00,
2013-09-19 20:52:00,64.0,-99.9,30.09,SSE,156,-999.0,-999.0,-999,0.00,,,-99.99,,2013-09-20 00:52:00,
2013-09-19 21:42:00,60.0,-99.9,30.10,SSE,156,-999.0,-999.0,-999,0.00,,,-99.99,,2013-09-20 01:42:00,
2013-09-19 21:52:00,60.0,-99.9,30.10,SSE,156,-999.0,-999.0,-999,0.00,,,-99.99,,2013-09-20 01:52:00,
2013-09-19 21:53:00,56.0,-99.9,30.09,SSE,156,-999.0,-999.0,-999,0.00,,,-99.99,,2013-09-20 01:53:00,
2013-09-19 22:43:00,56.0,-99.9,30.09,SSE,156,-999.0,-999.0,-999,0.00,,,-99.99,,2013-09-20 02:43:00,
2013-09-19 22:53:00,54.0,-99.9,30.09,SSE,156,-999.0,-999.0,-999,0.00,,,-99.99,,2013-09-20 02:53:00,
2013-09-19 23:45:00,54.0,-99.9,30.09,SSE,156,-999.0,-999.0,-999,0.00,,,-99.99,,2013-09-20 03:45:00,
2013-09-19 23:53:00,53.0,-99.9,30.08,SSE,156,-999.0,-999.0,-999,0.00,,,-99.99,,2013-09-20 03:53:00,